Regional Weather Roundup
Issued by NWS

Home | Current Version | Previous Version | Text Only | Print | Product List | Glossary On
Versions: 1 2 3 4 5 6 7 8 9 10 11 12 13 14 15 16 17 18 19 20 21 22 23 24 25 26 27 28 29 30 31 32 33 34 35 36 37 38 39 40 41 42 43 44 45 46 47 48 49 50
000
ASUS43 KBIS 140659
RWRND

NORTH DAKOTA REGIONAL WEATHER ROUNDUP
NATIONAL WEATHER SERVICE BISMARCK ND
200 AM CDT MON JUL 14 2014

NOTE: "FAIR" INDICATES FEW OR NO CLOUDS BELOW 12,000 FEET WITH NO
SIGNIFICANT WEATHER AND/OR OBSTRUCTIONS TO VISIBILITY.


NDZ001>003-009>011-017-140800-
NORTHWEST NORTH DAKOTA

CITY           SKY/WX    TMP DP  RH WIND       PRES   REMARKS
WILLISTON      CLEAR     53  46  77 N5        30.22R
MINOT          CLEAR     54  44  69 NW14      30.14R
$$

NDZ018>021-031>035-040>046-140800-
SOUTHWEST NORTH DAKOTA

CITY           SKY/WX    TMP DP  RH WIND       PRES   REMARKS
BISMARCK       CLEAR     58  47  66 N12       30.13R
DICKINSON      CLEAR     48  42  80 W6        30.19R
GARRISON         N/A     55  50  83 N8        30.15R
HETTINGER ARPT CLEAR     45  42  89 NW5       30.20R
$$

NDZ004>008-012>016-024-026-027-054-140800-
NORTHEAST NORTH DAKOTA

CITY           SKY/WX    TMP DP  RH WIND       PRES   REMARKS
GRAND FORKS    HVY RAIN  52  49  89 NW17G25   29.97R FOG
GRND FRKS AFB  MOCLDY    52  52 100 N18       29.99R
DEVILS LAKE    CLOUDY    55  46  71 N17G26    30.03R
$$

NDZ022-023-025-028>030-036>039-047>053-140800-
SOUTHEAST NORTH DAKOTA

CITY           SKY/WX    TMP DP  RH WIND       PRES   REMARKS
FARGO          MOCLDY    60  46  59 NW17G24   29.96S
$$




USA.gov is the U.S. government's official web portal to all federal, state and local government web resources and services.